| time (UTC) | temp F | wind direction | speed knots | gust knots | rain 1hr in | rain 24hr in | rain mn in | humidity % | barometer mb |
| 20260506190353 | 62 | 222 | 0.0 | 0.0 | 0.00 | 0.00 | 0.00 | 67 | 1008.0 |
| 20260506185851 | 63 | 222 | 0.0 | 0.0 | 0.00 | 0.00 | 0.00 | 66 | 1008.0 |
| 20260506185349 | 63 | 222 | 0.0 | 0.0 | 0.00 | 0.00 | 0.00 | 65 | 1007.9 |
| 20260506184848 | 64 | 222 | 0.0 | 0.0 | 0.00 | 0.00 | 0.00 | 63 | 1007.8 |
| 20260506184347 | 65 | 222 | 0.0 | 0.0 | 0.00 | 0.00 | 0.00 | 62 | 1007.8 |
| 20260506183847 | 65 | 222 | 0.0 | 0.0 | 0.00 | 0.00 | 0.00 | 62 | 1007.8 |
| 20260506183609 | 66 | 222 | 0.0 | 0.0 | 0.00 | 0.00 | 0.00 | 61 | 1007.8 |
| 20260506183107 | 66 | 222 | 0.0 | 0.0 | 0.00 | 0.00 | 0.00 | 60 | 1007.7 |
| 20260506182608 | 67 | 222 | 0.0 | 0.0 | 0.00 | 0.00 | 0.00 | 57 | 1007.7 |
| 20260506181839 | 68 | 222 | 0.0 | 0.0 | 0.00 | 0.00 | 0.00 | 56 | 1007.7 |
| 20260506181339 | 68 | 222 | 0.0 | 0.0 | 0.00 | 0.00 | 0.00 | 55 | 1007.7 |
| 20260506180839 | 69 | 222 | 0.0 | 0.0 | 0.00 | 0.00 | 0.00 | 54 | 1007.7 |
| 20260506180337 | 70 | 222 | 0.0 | 0.0 | 0.00 | 0.00 | 0.00 | 53 | 1007.6 |
| 20260506175833 | 70 | 222 | 0.0 | 0.0 | 0.00 | 0.00 | 0.00 | 52 | 1007.5 |
| 20260506175333 | 71 | 222 | 0.0 | 1.7 | 0.00 | 0.00 | 0.00 | 52 | 1007.5 |
| 20260506174832 | 71 | 222 | 0.0 | 2.6 | 0.00 | 0.00 | 0.00 | 51 | 1007.5 |
| 20260506174601 | 72 | 222 | 0.0 | 2.6 | 0.00 | 0.00 | 0.00 | 50 | 1007.5 |
| 20260506173828 | 72 | 222 | 0.0 | 1.7 | 0.00 | 0.00 | 0.00 | 50 | 1007.5 |
| 20260506173322 | 72 | 222 | 0.0 | 2.6 | 0.00 | 0.00 | 0.00 | 50 | 1007.6 |
| 20260506172816 | 72 | 222 | 0.9 | 3.5 | 0.00 | 0.00 | 0.00 | 49 | 1007.6 |
| 20260506172309 | 73 | 222 | 1.7 | 5.2 | 0.00 | 0.00 | 0.00 | 49 | 1007.5 |
| 20260506171809 | 73 | 223 | 2.6 | 5.2 | 0.00 | 0.00 | 0.00 | 48 | 1007.5 |
| 20260506171540 | 74 | 235 | 1.7 | 4.3 | 0.00 | 0.00 | 0.00 | 48 | 1007.4 |
| 20260506170809 | 74 | 235 | 1.7 | 4.3 | 0.00 | 0.00 | 0.00 | 47 | 1007.5 |
| 20260506170309 | 74 | 233 | 0.9 | 3.5 | 0.00 | 0.00 | 0.00 | 48 | 1007.5 |
| 20260506165808 | 73 | 233 | 0.9 | 3.5 | 0.00 | 0.00 | 0.00 | 49 | 1007.4 |
| 20260506165307 | 73 | 232 | 0.0 | 1.7 | 0.00 | 0.00 | 0.00 | 49 | 1007.5 |
| 20260506164807 | 72 | 232 | 0.0 | 2.6 | 0.00 | 0.00 | 0.00 | 49 | 1007.6 |
| 20260506164305 | 72 | 232 | 0.9 | 3.5 | 0.00 | 0.00 | 0.00 | 49 | 1007.6 |
| 20260506163804 | 72 | 232 | 0.9 | 3.5 | 0.00 | 0.00 | 0.00 | 49 | 1007.6 |
| 20260506163532 | 72 | 232 | 1.7 | 6.1 | 0.00 | 0.00 | 0.00 | 49 | 1007.6 |
| 20260506162804 | 72 | 232 | 2.6 | 6.1 | 0.00 | 0.00 | 0.00 | 49 | 1007.7 |
| 20260506162306 | 72 | 244 | 2.6 | 6.1 | 0.00 | 0.00 | 0.00 | 48 | 1007.8 |
| 20260506161802 | 72 | 254 | 2.6 | 5.2 | 0.00 | 0.00 | 0.00 | 48 | 1007.8 |
| 20260506161303 | 73 | 255 | 2.6 | 7.0 | 0.00 | 0.00 | 0.00 | 48 | 1007.8 |
| 20260506160801 | 73 | 240 | 1.7 | 7.0 | 0.00 | 0.00 | 0.00 | 47 | 1007.9 |
| 20260506160300 | 73 | 236 | 1.7 | 5.2 | 0.00 | 0.00 | 0.00 | 48 | 1007.9 |
| 20260506155802 | 73 | 251 | 2.6 | 7.0 | 0.00 | 0.00 | 0.00 | 47 | 1007.9 |
| 20260506155258 | 73 | 219 | 3.5 | 7.8 | 0.00 | 0.00 | 0.00 | 47 | 1008.0 |
| 20260506155024 | 73 | 211 | 3.5 | 7.0 | 0.00 | 0.00 | 0.00 | 46 | 1008.0 |
| 20260506154250 | 73 | 230 | 4.3 | 10.4 | 0.00 | 0.00 | 0.00 | 46 | 1008.1 |
| 20260506153743 | 74 | 234 | 4.3 | 10.4 | 0.00 | 0.00 | 0.00 | 46 | 1008.1 |
| 20260506153237 | 74 | 219 | 3.5 | 8.7 | 0.00 | 0.00 | 0.00 | 46 | 1008.1 |
| 20260506152737 | 74 | 230 | 3.5 | 8.7 | 0.00 | 0.00 | 0.00 | 46 | 1008.1 |
| 20260506152237 | 74 | 252 | 3.5 | 7.8 | 0.00 | 0.00 | 0.00 | 46 | 1008.2 |
| 20260506151737 | 74 | 205 | 3.5 | 7.8 | 0.00 | 0.00 | 0.00 | 45 | 1008.2 |
| 20260506151235 | 74 | 217 | 3.5 | 8.7 | 0.00 | 0.00 | 0.00 | 46 | 1008.3 |
| 20260506151004 | 74 | 252 | 4.3 | 8.7 | 0.00 | 0.00 | 0.00 | 45 | 1008.2 |
| 20260506150501 | 74 | 281 | 4.3 | 7.8 | 0.00 | 0.00 | 0.00 | 44 | 1008.2 |
| 20260506145729 | 75 | 321 | 4.3 | 8.7 | 0.00 | 0.00 | 0.00 | 44 | 1008.2 |
| 20260506145230 | 75 | 252 | 4.3 | 8.7 | 0.00 | 0.00 | 0.00 | 43 | 1008.2 |
| 20260506144729 | 75 | 273 | 3.5 | 8.7 | 0.00 | 0.00 | 0.00 | 43 | 1008.3 |
| 20260506144230 | 75 | 283 | 4.3 | 11.3 | 0.00 | 0.00 | 0.00 | 44 | 1008.4 |
| 20260506143729 | 75 | 198 | 5.2 | 11.3 | 0.00 | 0.00 | 0.00 | 43 | 1008.3 |
| 20260506143229 | 75 | 169 | 5.2 | 12.2 | 0.00 | 0.00 | 0.00 | 43 | 1008.3 |
| 20260506142729 | 76 | 217 | 6.1 | 13.0 | 0.00 | 0.00 | 0.00 | 42 | 1008.3 |
| 20260506142228 | 76 | 196 | 6.1 | 13.0 | 0.00 | 0.00 | 0.00 | 42 | 1008.3 |
| 20260506141729 | 76 | 259 | 5.2 | 12.2 | 0.00 | 0.00 | 0.00 | 43 | 1008.3 |
| 20260506141229 | 75 | 225 | 4.3 | 13.0 | 0.00 | 0.00 | 0.00 | 43 | 1008.4 |
| 20260506140729 | 75 | 276 | 5.2 | 13.0 | 0.00 | 0.00 | 0.00 | 44 | 1008.4 |
| 20260506140455 | 75 | 281 | 5.2 | 13.0 | 0.00 | 0.00 | 0.00 | 43 | 1008.4 |
| 20260506135728 | 75 | 233 | 5.2 | 13.0 | 0.00 | 0.00 | 0.00 | 44 | 1008.4 |
| 20260506135228 | 75 | 224 | 4.3 | 12.2 | 0.00 | 0.00 | 0.00 | 45 | 1008.5 |
| 20260506134728 | 75 | 237 | 4.3 | 10.4 | 0.00 | 0.00 | 0.00 | 44 | 1008.5 |
| 20260506134229 | 75 | 229 | 4.3 | 10.4 | 0.00 | 0.00 | 0.00 | 44 | 1008.5 |
| 20260506133729 | 75 | 288 | 4.3 | 10.4 | 0.00 | 0.00 | 0.00 | 44 | 1008.5 |
| 20260506133229 | 76 | 302 | 4.3 | 10.4 | 0.00 | 0.00 | 0.00 | 43 | 1008.5 |
| 20260506132731 | 75 | 256 | 4.3 | 12.2 | 0.00 | 0.00 | 0.00 | 45 | 1008.6 |
| 20260506132726 | 75 | 162 | 5.2 | 12.2 | 0.00 | 0.00 | 0.00 | 45 | 1008.4 |
| 20260506131729 | 75 | 227 | 6.1 | 13.0 | 0.00 | 0.00 | 0.00 | 45 | 1008.6 |
| 20260506131229 | 74 | 233 | 7.0 | 19.1 | 0.00 | 0.00 | 0.00 | 46 | 1008.6 |
| 20260506130729 | 74 | 191 | 7.0 | 19.1 | 0.00 | 0.00 | 0.00 | 46 | 1008.6 |
| 20260506130457 | 74 | 218 | 5.2 | 12.2 | 0.00 | 0.00 | 0.00 | 47 | 1008.5 |
| 20260506125729 | 74 | 248 | 6.1 | 12.2 | 0.00 | 0.00 | 0.00 | 47 | 1008.6 |
| 20260506125457 | 74 | 245 | 6.1 | 12.2 | 0.00 | 0.00 | 0.00 | 46 | 1008.6 |
| 20260506124729 | 74 | 213 | 6.1 | 12.2 | 0.00 | 0.00 | 0.00 | 47 | 1008.6 |
| 20260506124222 | 75 | 223 | 6.1 | 12.2 | 0.00 | 0.00 | 0.00 | 45 | 1008.6 |
| 20260506123716 | 76 | 259 | 6.1 | 13.9 | 0.00 | 0.00 | 0.00 | 46 | 1008.7 |
| 20260506123202 | 76 | 269 | 5.2 | 13.9 | 0.00 | 0.00 | 0.00 | 46 | 1008.8 |
| 20260506122701 | 75 | 234 | 4.3 | 12.2 | 0.00 | 0.00 | 0.00 | 47 | 1008.6 |
| 20260506122200 | 74 | 90 | 4.3 | 9.6 | 0.00 | 0.00 | 0.00 | 48 | 1008.6 |
| 20260506121701 | 74 | 244 | 5.2 | 13.0 | 0.00 | 0.00 | 0.00 | 48 | 1008.7 |
| 20260506121436 | 75 | 234 | 6.1 | 13.0 | 0.00 | 0.00 | 0.00 | 47 | 1008.7 |
| 20260506120701 | 75 | 273 | 4.3 | 12.2 | 0.00 | 0.00 | 0.00 | 48 | 1008.7 |
| 20260506120200 | 74 | 197 | 5.2 | 11.3 | 0.00 | 0.00 | 0.00 | 51 | 1008.6 |
| 20260506115701 | 74 | 222 | 5.2 | 11.3 | 0.00 | 0.00 | 0.00 | 48 | 1008.6 |
| 20260506115655 | 74 | 252 | 5.2 | 10.4 | 0.00 | 0.00 | 0.00 | 49 | 1008.5 |
| 20260506114701 | 74 | 179 | 6.1 | 13.0 | 0.00 | 0.00 | 0.00 | 48 | 1008.6 |
| 20260506114654 | 75 | 196 | 6.1 | 13.0 | 0.00 | 0.00 | 0.00 | 48 | 1008.5 |
| 20260506113701 | 74 | 225 | 4.3 | 11.3 | 0.00 | 0.00 | 0.00 | 49 | 1008.5 |
| 20260506113211 | 74 | 222 | 5.2 | 16.5 | 0.00 | 0.00 | 0.00 | 49 | 1008.5 |
| 20260506112659 | 74 | 158 | 5.2 | 16.5 | 0.00 | 0.00 | 0.00 | 50 | 1008.5 |
| 20260506112143 | 74 | 275 | 6.1 | 17.4 | 0.00 | 0.00 | 0.00 | 50 | 1008.6 |
| 20260506111905 | 74 | 257 | 6.1 | 17.4 | 0.00 | 0.00 | 0.00 | 50 | 1008.6 |
| 20260506111133 | 74 | 235 | 5.2 | 14.8 | 0.00 | 0.00 | 0.00 | 49 | 1008.7 |
| 20260506110637 | 74 | 248 | 6.1 | 14.8 | 0.00 | 0.00 | 0.00 | 48 | 1008.7 |
| 20260506110136 | 73 | 285 | 6.1 | 13.9 | 0.00 | 0.00 | 0.00 | 49 | 1008.7 |
| 20260506105633 | 74 | 209 | 7.0 | 13.9 | 0.00 | 0.00 | 0.00 | 50 | 1008.8 |
| 20260506105133 | 73 | 241 | 7.0 | 14.8 | 0.00 | 0.00 | 0.00 | 51 | 1008.7 |
| 20260506104634 | 73 | 213 | 6.1 | 16.5 | 0.00 | 0.00 | 0.00 | 53 | 1008.5 |
| 20260506104135 | 73 | 200 | 5.2 | 16.5 | 0.00 | 0.00 | 0.00 | 54 | 1008.7 |
| 20260506104126 | 73 | 192 | 5.2 | 11.3 | 0.00 | 0.00 | 0.00 | 54 | 1008.7 |
| 20260506103133 | 72 | 261 | 5.2 | 11.3 | 0.00 | 0.00 | 0.00 | 55 | 1008.8 |
| 20260506103129 | 72 | 146 | 6.1 | 13.0 | 0.00 | 0.00 | 0.00 | 53 | 1008.7 |
| 20260506102400 | 72 | 265 | 7.0 | 13.9 | 0.00 | 0.00 | 0.00 | 54 | 1008.7 |
| 20260506101631 | 71 | 189 | 7.0 | 13.9 | 0.00 | 0.00 | 0.00 | 54 | 1008.8 |
| 20260506101125 | 71 | 234 | 6.1 | 16.5 | 0.00 | 0.00 | 0.00 | 54 | 1008.9 |
| 20260506100620 | 71 | 198 | 6.1 | 16.5 | 0.00 | 0.00 | 0.00 | 55 | 1008.9 |
| 20260506100113 | 71 | 232 | 6.1 | 13.0 | 0.00 | 0.00 | 0.00 | 55 | 1008.9 |
| 20260506095612 | 71 | 198 | 5.2 | 12.2 | 0.00 | 0.00 | 0.00 | 54 | 1008.8 |
| 20260506095110 | 71 | 286 | 4.3 | 11.3 | 0.00 | 0.00 | 0.00 | 55 | 1008.8 |
| 20260506094608 | 71 | 238 | 4.3 | 9.6 | 0.00 | 0.00 | 0.00 | 55 | 1008.8 |
| 20260506094108 | 70 | 276 | 4.3 | 10.4 | 0.00 | 0.00 | 0.00 | 56 | 1008.8 |
| 20260506093609 | 70 | 203 | 5.2 | 11.3 | 0.00 | 0.00 | 0.00 | 56 | 1008.7 |
| 20260506093109 | 70 | 214 | 6.1 | 15.6 | 0.00 | 0.00 | 0.00 | 56 | 1008.7 |
| 20260506092837 | 70 | 297 | 6.1 | 15.6 | 0.00 | 0.00 | 0.00 | 55 | 1008.7 |
| 20260506092106 | 70 | 279 | 6.1 | 14.8 | 0.00 | 0.00 | 0.00 | 56 | 1008.6 |
| 20260506091836 | 70 | 281 | 5.2 | 14.8 | 0.00 | 0.00 | 0.00 | 55 | 1008.6 |
| 20260506091106 | 70 | 229 | 5.2 | 12.2 | 0.00 | 0.00 | 0.00 | 57 | 1008.6 |
| 20260506090605 | 70 | 213 | 5.2 | 11.3 | 0.00 | 0.00 | 0.00 | 57 | 1008.6 |
| 20260506090105 | 70 | 202 | 5.2 | 12.2 | 0.00 | 0.00 | 0.00 | 57 | 1008.6 |
| 20260506085605 | 70 | 242 | 4.3 | 12.2 | 0.00 | 0.00 | 0.00 | 57 | 1008.5 |
| 20260506085104 | 69 | 290 | 4.3 | 12.2 | 0.00 | 0.00 | 0.00 | 58 | 1008.4 |
| 20260506084603 | 69 | 296 | 5.2 | 12.2 | 0.00 | 0.00 | 0.00 | 58 | 1008.3 |
| 20260506084102 | 69 | 290 | 5.2 | 11.3 | 0.00 | 0.00 | 0.00 | 59 | 1008.3 |
| 20260506083602 | 69 | 237 | 6.1 | 13.0 | 0.00 | 0.00 | 0.00 | 60 | 1008.4 |
| 20260506083102 | 69 | 269 | 6.1 | 13.0 | 0.00 | 0.00 | 0.00 | 59 | 1008.4 |
| 20260506082602 | 68 | 220 | 5.2 | 11.3 | 0.00 | 0.00 | 0.00 | 58 | 1008.4 |
| 20260506082105 | 68 | 305 | 5.2 | 13.0 | 0.00 | 0.00 | 0.00 | 61 | 1008.4 |
| 20260506081604 | 68 | 225 | 5.2 | 13.0 | 0.00 | 0.00 | 0.00 | 60 | 1008.4 |
| 20260506081102 | 68 | 200 | 4.3 | 11.3 | 0.00 | 0.00 | 0.00 | 61 | 1008.4 |
| 20260506080601 | 67 | 250 | 5.2 | 9.6 | 0.00 | 0.00 | 0.00 | 61 | 1008.4 |
| 20260506073100 | 65 | 250 | 5.2 | 10.4 | 0.00 | 0.00 | 0.00 | 65 | 1008.4 |
| 20260506072827 | 65 | 251 | 5.2 | 10.4 | 0.00 | 0.00 | 0.00 | 63 | 1008.3 |
| 20260506072102 | 65 | 280 | 5.2 | 10.4 | 0.00 | 0.00 | 0.00 | 64 | 1008.3 |
| 20260506072058 | 65 | 212 | 4.3 | 10.4 | 0.00 | 0.00 | 0.00 | 64 | 1008.3 |
| 20260506071103 | 65 | 227 | 5.2 | 10.4 | 0.00 | 0.00 | 0.00 | 65 | 1008.4 |
| 20260506070603 | 65 | 205 | 5.2 | 10.4 | 0.00 | 0.00 | 0.00 | 66 | 1008.3 |
| 20260506070327 | 64 | 213 | 4.3 | 11.3 | 0.00 | 0.00 | 0.00 | 66 | 1008.2 |
| 20260506062058 | 62 | 248 | 7.0 | 13.9 | 0.00 | 0.00 | 0.00 | 69 | 1008.2 |
| 20260506061559 | 62 | 213 | 6.1 | 13.9 | 0.00 | 0.00 | 0.00 | 69 | 1008.1 |
| 20260506061059 | 62 | 229 | 3.5 | 10.4 | 0.00 | 0.00 | 0.00 | 69 | 1008.0 |
| 20260506060558 | 62 | 250 | 2.6 | 7.8 | 0.00 | 0.00 | 0.00 | 70 | 1007.9 |
| 20260506051247 | 60 | 228 | 3.5 | 10.4 | 0.00 | 0.00 | 0.00 | 73 | 1007.9 |
| 20260506050506 | 59 | 219 | 3.5 | 10.4 | 0.00 | 0.00 | 0.00 | 73 | 1008.0 |
| 20260506045004 | 59 | 171 | 2.6 | 7.8 | 0.00 | 0.00 | 0.00 | 73 | 1007.8 |
| 20260506044503 | 58 | 242 | 1.7 | 8.7 | 0.00 | 0.00 | 0.00 | 73 | 1007.9 |
| 20260506044005 | 58 | 218 | 2.6 | 8.7 | 0.00 | 0.00 | 0.00 | 73 | 1007.7 |
| 20260506043504 | 59 | 228 | 2.6 | 7.8 | 0.00 | 0.00 | 0.00 | 73 | 1007.8 |
| 20260506043005 | 59 | 221 | 2.6 | 7.0 | 0.00 | 0.00 | 0.00 | 73 | 1007.9 |
| 20260506042502 | 59 | 186 | 2.6 | 6.1 | 0.00 | 0.00 | 0.00 | 73 | 1007.8 |
| 20260506042003 | 58 | 175 | 2.6 | 7.8 | 0.00 | 0.00 | 0.00 | 74 | 1007.8 |
| 20260506041502 | 58 | 153 | 1.7 | 7.8 | 0.00 | 0.00 | 0.00 | 74 | 1007.8 |
| 20260506041001 | 58 | 194 | 1.7 | 5.2 | 0.00 | 0.00 | 0.00 | 74 | 1007.9 |
| 20260506040733 | 58 | 196 | 1.7 | 5.2 | 0.00 | 0.00 | 0.00 | 74 | 1007.9 |
| 20260506040230 | 58 | 234 | 1.7 | 6.1 | 0.00 | 0.00 | 0.00 | 74 | 1007.8 |
| 20260506035505 | 58 | 237 | 2.6 | 6.1 | 0.00 | 0.00 | 0.00 | 73 | 1007.8 |
| 20260506035005 | 58 | 228 | 2.6 | 8.7 | 0.00 | 0.00 | 0.00 | 73 | 1007.9 |
| 20260506034502 | 57 | 221 | 3.5 | 11.3 | 0.00 | 0.00 | 0.00 | 74 | 1007.8 |
| 20260506033959 | 57 | 205 | 3.5 | 11.3 | 0.00 | 0.00 | 0.00 | 75 | 1007.6 |
| 20260506033452 | 56 | 233 | 2.6 | 9.6 | 0.00 | 0.00 | 0.00 | 76 | 1007.6 |
| 20260506032945 | 55 | 166 | 2.6 | 9.6 | 0.00 | 0.00 | 0.00 | 78 | 1007.7 |
| 20260506032436 | 54 | 157 | 1.7 | 7.0 | 0.00 | 0.00 | 0.00 | 81 | 1007.7 |
| 20260506031940 | 51 | 206 | 0.9 | 7.0 | 0.00 | 0.00 | 0.00 | 83 | 1007.8 |
| 20260506031436 | 50 | 236 | 0.0 | 3.5 | 0.00 | 0.00 | 0.00 | 84 | 1007.9 |
| 20260506030934 | 48 | 236 | 0.0 | 3.5 | 0.00 | 0.00 | 0.00 | 84 | 1007.9 |
| 20260506030433 | 47 | 194 | 0.0 | 2.6 | 0.00 | 0.00 | 0.00 | 84 | 1007.9 |
| 20260506025934 | 47 | 194 | 0.0 | 2.6 | 0.00 | 0.00 | 0.00 | 84 | 1007.9 |
| 20260506025432 | 46 | 194 | 0.0 | 0.0 | 0.00 | 0.00 | 0.00 | 84 | 1008.0 |
| 20260506024932 | 46 | 194 | 0.0 | 0.0 | 0.00 | 0.00 | 0.00 | 84 | 1007.9 |
| 20260506024429 | 46 | 194 | 0.0 | 0.0 | 0.00 | 0.00 | 0.00 | 84 | 1007.9 |
| 20260506023929 | 46 | 194 | 0.0 | 0.0 | 0.00 | 0.00 | 0.00 | 84 | 1007.9 |
| 20260506023430 | 46 | 194 | 0.0 | 0.0 | 0.00 | 0.00 | 0.00 | 83 | 1007.9 |
| 20260506022929 | 46 | 194 | 0.0 | 0.0 | 0.00 | 0.00 | 0.00 | 83 | 1007.9 |
| 20260506022428 | 46 | 194 | 0.0 | 0.0 | 0.00 | 0.00 | 0.00 | 83 | 1007.9 |
| 20260506021916 | 47 | 194 | 0.0 | 0.0 | 0.00 | 0.00 | 0.00 | 83 | 1007.9 |
| 20260506021406 | 47 | 194 | 0.0 | 0.0 | 0.00 | 0.00 | 0.00 | 83 | 1007.9 |
| 20260506021139 | 47 | 194 | 0.0 | 0.0 | 0.00 | 0.00 | 0.00 | 83 | 1007.9 |
| 20260506020404 | 47 | 194 | 0.0 | 0.0 | 0.00 | 0.00 | 0.00 | 83 | 1007.9 |
| 20260506020127 | 47 | 194 | 0.0 | 0.0 | 0.00 | 0.00 | 0.00 | 83 | 1008.0 |
| 20260506015401 | 47 | 194 | 0.0 | 0.0 | 0.00 | 0.00 | 0.00 | 83 | 1008.0 |
| 20260506014902 | 47 | 194 | 0.0 | 0.0 | 0.00 | 0.00 | 0.00 | 82 | 1007.9 |
| 20260506014625 | 47 | 194 | 0.0 | 0.0 | 0.00 | 0.00 | 0.00 | 82 | 1007.9 |
| 20260506013902 | 47 | 194 | 0.0 | 0.0 | 0.00 | 0.00 | 0.00 | 82 | 1007.9 |
| 20260506013402 | 47 | 194 | 0.0 | 0.0 | 0.00 | 0.00 | 0.00 | 82 | 1008.0 |
| 20260506012905 | 48 | 194 | 0.0 | 0.0 | 0.00 | 0.00 | 0.00 | 82 | 1007.9 |
| 20260506012358 | 47 | 194 | 0.0 | 0.0 | 0.00 | 0.00 | 0.00 | 82 | 1007.8 |
| 20260506011856 | 47 | 194 | 0.0 | 0.0 | 0.00 | 0.00 | 0.00 | 82 | 1007.8 |
| 20260506011356 | 47 | 194 | 0.0 | 0.0 | 0.00 | 0.00 | 0.00 | 82 | 1007.8 |
| 20260506010856 | 47 | 194 | 0.0 | 0.0 | 0.00 | 0.00 | 0.00 | 81 | 1007.9 |
| 20260506010354 | 48 | 194 | 0.0 | 0.0 | 0.00 | 0.00 | 0.00 | 80 | 1007.8 |
| 20260506005854 | 48 | 194 | 0.0 | 0.0 | 0.00 | 0.00 | 0.00 | 80 | 1007.8 |
| 20260506005342 | 48 | 194 | 0.0 | 0.0 | 0.00 | 0.00 | 0.00 | 79 | 1007.8 |
| 20260506004831 | 48 | 194 | 0.0 | 0.0 | 0.00 | 0.00 | 0.00 | 78 | 1007.8 |
| 20260506004332 | 49 | 194 | 0.0 | 0.0 | 0.00 | 0.00 | 0.00 | 78 | 1007.8 |
| 20260506003831 | 49 | 194 | 0.0 | 0.0 | 0.00 | 0.00 | 0.00 | 78 | 1007.8 |
| 20260506003331 | 50 | 194 | 0.0 | 0.0 | 0.00 | 0.00 | 0.00 | 78 | 1007.9 |
| 20260506003103 | 50 | 194 | 0.0 | 0.0 | 0.00 | 0.00 | 0.00 | 78 | 1007.9 |
| 20260506002333 | 50 | 194 | 0.0 | 0.0 | 0.00 | 0.00 | 0.00 | 78 | 1008.1 |
| 20260506001836 | 50 | 194 | 0.0 | 0.0 | 0.00 | 0.00 | 0.00 | 77 | 1008.0 |
| 20260506001334 | 50 | 194 | 0.0 | 0.0 | 0.00 | 0.00 | 0.00 | 77 | 1008.0 |
| 20260506000835 | 50 | 194 | 0.0 | 0.0 | 0.00 | 0.00 | 0.00 | 77 | 1008.1 |
| 20260506000330 | 51 | 194 | 0.0 | 0.0 | 0.00 | 0.00 | 0.00 | 76 | 1008.1 |
| 20260505235828 | 51 | 194 | 0.0 | 0.0 | 0.00 | 0.00 | 0.00 | 74 | 1008.2 |
| 20260505235327 | 51 | 194 | 0.0 | 0.0 | 0.00 | 0.00 | 0.00 | 74 | 1008.1 |
| 20260505234828 | 52 | 194 | 0.0 | 0.0 | 0.00 | 0.00 | 0.00 | 74 | 1008.1 |
| 20260505234327 | 52 | 194 | 0.0 | 0.0 | 0.00 | 0.00 | 0.00 | 73 | 1008.2 |
| 20260505233830 | 53 | 194 | 0.0 | 0.0 | 0.00 | 0.00 | 0.00 | 72 | 1008.2 |
| 20260505233328 | 53 | 194 | 0.0 | 1.7 | 0.00 | 0.00 | 0.00 | 72 | 1008.2 |
| 20260505232828 | 53 | 194 | 0.0 | 1.7 | 0.00 | 0.00 | 0.00 | 71 | 1008.2 |
| 20260505232824 | 54 | 194 | 0.0 | 0.0 | 0.00 | 0.00 | 0.00 | 70 | 1008.3 |
| 20260505231822 | 54 | 194 | 0.0 | 0.0 | 0.00 | 0.00 | 0.00 | 69 | 1008.2 |
| 20260505231312 | 55 | 194 | 0.0 | 0.0 | 0.00 | 0.00 | 0.00 | 68 | 1008.3 |
| 20260505230810 | 55 | 194 | 0.0 | 0.0 | 0.00 | 0.00 | 0.00 | 67 | 1008.3 |
| 20260505230307 | 56 | 194 | 0.0 | 0.0 | 0.00 | 0.00 | 0.00 | 67 | 1008.3 |
| 20260505225808 | 56 | 194 | 0.0 | 0.0 | 0.00 | 0.00 | 0.00 | 66 | 1008.3 |
| 20260505225529 | 57 | 194 | 0.0 | 0.0 | 0.00 | 0.00 | 0.00 | 65 | 1008.3 |
| 20260505224806 | 58 | 194 | 0.0 | 0.0 | 0.00 | 0.00 | 0.00 | 64 | 1008.3 |
| 20260505224306 | 59 | 194 | 0.0 | 0.0 | 0.00 | 0.00 | 0.00 | 61 | 1008.3 |
| 20260505223804 | 60 | 194 | 0.0 | 0.0 | 0.00 | 0.00 | 0.00 | 60 | 1008.3 |
| 20260505223302 | 61 | 194 | 0.0 | 0.0 | 0.00 | 0.00 | 0.00 | 59 | 1008.4 |
| 20260505222802 | 62 | 194 | 0.0 | 0.0 | 0.00 | 0.00 | 0.00 | 58 | 1008.4 |
| 20260505222302 | 62 | 194 | 0.0 | 0.9 | 0.00 | 0.00 | 0.00 | 58 | 1008.4 |
| 20260505221801 | 62 | 194 | 0.0 | 2.6 | 0.00 | 0.00 | 0.00 | 58 | 1008.4 |
| 20260505221301 | 62 | 194 | 0.0 | 2.6 | 0.00 | 0.00 | 0.00 | 58 | 1008.4 |
| 20260505220801 | 62 | 194 | 0.0 | 1.7 | 0.00 | 0.00 | 0.00 | 58 | 1008.5 |
| 20260505220301 | 61 | 194 | 0.0 | 3.5 | 0.00 | 0.00 | 0.00 | 58 | 1008.5 |
| 20260505215753 | 61 | 194 | 0.0 | 3.5 | 0.00 | 0.00 | 0.00 | 59 | 1008.5 |
| 20260505215247 | 61 | 194 | 0.0 | 0.9 | 0.00 | 0.00 | 0.00 | 59 | 1008.6 |
| 20260505215014 | 60 | 194 | 0.0 | 0.9 | 0.00 | 0.00 | 0.00 | 60 | 1008.6 |
| 20260505214515 | 60 | 194 | 0.0 | 0.9 | 0.00 | 0.00 | 0.00 | 61 | 1008.7 |
| 20260505213741 | 59 | 194 | 0.0 | 0.9 | 0.00 | 0.00 | 0.00 | 61 | 1008.6 |
| 20260505213239 | 58 | 194 | 0.0 | 0.9 | 0.00 | 0.00 | 0.00 | 62 | 1008.6 |
| 20260505212739 | 58 | 194 | 0.0 | 1.7 | 0.00 | 0.00 | 0.00 | 62 | 1008.6 |
| 20260505212240 | 58 | 194 | 0.0 | 1.7 | 0.00 | 0.00 | 0.00 | 63 | 1008.6 |
| 20260505211736 | 57 | 194 | 0.0 | 1.7 | 0.00 | 0.00 | 0.00 | 65 | 1008.7 |
| 20260505211233 | 56 | 194 | 0.0 | 1.7 | 0.00 | 0.00 | 0.00 | 65 | 1008.6 |
| 20260505210733 | 56 | 194 | 0.0 | 0.0 | 0.00 | 0.00 | 0.00 | 64 | 1008.7 |
| 20260505210233 | 56 | 194 | 0.0 | 0.0 | 0.00 | 0.00 | 0.00 | 63 | 1008.6 |
| 20260505205734 | 56 | 194 | 0.0 | 0.0 | 0.00 | 0.00 | 0.00 | 62 | 1008.6 |
| 20260505205231 | 56 | 194 | 0.0 | 0.0 | 0.00 | 0.00 | 0.00 | 62 | 1008.6 |
| 20260505205001 | 56 | 194 | 0.0 | 0.0 | 0.00 | 0.00 | 0.00 | 62 | 1008.6 |
| 20260505204236 | 57 | 194 | 0.0 | 0.9 | 0.00 | 0.00 | 0.00 | 61 | 1008.6 |
| 20260505203733 | 57 | 194 | 0.0 | 0.9 | 0.00 | 0.00 | 0.00 | 60 | 1008.5 |
| 20260505203718 | 57 | 194 | 0.0 | 1.7 | 0.00 | 0.00 | 0.00 | 59 | 1008.5 |
| 20260505202726 | 58 | 194 | 0.0 | 1.7 | 0.00 | 0.00 | 0.00 | 58 | 1008.5 |
| 20260505202220 | 58 | 194 | 0.0 | 0.9 | 0.00 | 0.00 | 0.00 | 57 | 1008.6 |
| 20260505202212 | 58 | 194 | 0.0 | 0.9 | 0.00 | 0.00 | 0.00 | 56 | 1008.5 |
| 20260505201218 | 59 | 194 | 0.0 | 1.7 | 0.00 | 0.00 | 0.00 | 56 | 1008.6 |
| 20260505200713 | 59 | 194 | 0.0 | 1.7 | 0.00 | 0.00 | 0.00 | 55 | 1008.6 |
| 20260505200211 | 60 | 194 | 0.0 | 0.0 | 0.00 | 0.00 | 0.00 | 53 | 1008.4 |
| 20260505195708 | 60 | 194 | 0.0 | 0.0 | 0.00 | 0.00 | 0.00 | 52 | 1008.5 |
| 20260505195208 | 61 | 194 | 0.0 | 0.0 | 0.00 | 0.00 | 0.00 | 50 | 1008.4 |
| 20260505194708 | 62 | 194 | 0.0 | 0.0 | 0.00 | 0.00 | 0.00 | 48 | 1008.4 |
| 20260505194208 | 63 | 194 | 0.0 | 0.0 | 0.00 | 0.00 | 0.00 | 47 | 1008.4 |
| 20260505193705 | 64 | 194 | 0.0 | 0.0 | 0.00 | 0.00 | 0.00 | 46 | 1008.4 |
| 20260505193206 | 65 | 194 | 0.0 | 0.0 | 0.00 | 0.00 | 0.00 | 45 | 1008.4 |
| 20260505192706 | 66 | 194 | 0.0 | 1.7 | 0.00 | 0.00 | 0.00 | 43 | 1008.3 |
| 20260505192205 | 66 | 194 | 0.0 | 1.7 | 0.00 | 0.00 | 0.00 | 43 | 1008.3 |
| 20260505191704 | 66 | 194 | 0.0 | 0.0 | 0.00 | 0.00 | 0.00 | 42 | 1008.4 |
| 20260505191202 | 66 | 194 | 0.0 | 0.9 | 0.00 | 0.00 | 0.00 | 42 | 1008.4 |
| 20260505190702 | 67 | 194 | 0.0 | 2.6 | 0.00 | 0.00 | 0.00 | 42 | 1008.4 |